GW5324 Weather Reports


Display with metric or nautical units.
time (UTC)temp
F
wind
direction
speed
MPH
gust
MPH
rain 1hr
in
rain 24hr
in
rain mn
in
humidity
%
barometer
mb
20260905004524 61 104 2.0 6.0 0.00 0.17 0.17 81 1014.4
20260905003034 61 82 4.0 7.0 0.00 0.17 0.17 81 1014.4
20260905001531 61 69 3.0 5.0 0.00 0.17 0.17 82 1014.3
20260905000014 61 68 0.0 3.0 0.01 0.17 0.17 86 1014.2
20260904234519 60 82 0.0 3.0 0.03 0.17 0.17 87 1014.5
20260904233027 0 101 0.0 0.0 0.05 0.17 0.17 87 1014.3
20260904231529 59 101 0.0 2.0 0.08 0.18 0.17 86 1014.2
20260904230012 59 167 0.0 2.0 0.10 0.19 0.16 85 1014.3
20260904224516 58 200 4.0 7.0 0.09 0.17 0.14 86 1014.3
20260904223023 58 161 3.0 5.0 0.07 0.15 0.12 85 1014.4
20260904221542 58 223 4.0 7.0 0.04 0.12 0.09 78 1014.5
20260904220031 60 232 2.0 11.0 0.01 0.09 0.06 75 1013.9
20260904214536 62 217 8.0 22.0 0.00 0.08 0.05 71 1013.7
20260904213019 68 130 0.0 3.0 0.00 0.08 0.05 49 1013.2
20260904211534 69 5 1.0 4.0 0.00 0.08 0.05 48 1012.9
20260904210029 69 322 1.0 5.0 0.00 0.08 0.05 48 1012.7
20260904204532 69 319 2.0 4.0 0.00 0.08 0.05 48 1012.8
20260904203023 69 59 6.0 9.0 0.00 0.08 0.05 50 1012.8
20260904201529 69 63 4.0 8.0 0.00 0.08 0.05 49 1012.9
20260904200031 68 25 3.0 8.0 0.00 0.08 0.05 51 1012.9
20260904194618 68 350 2.0 6.0 0.00 0.08 0.05 49 1013.0
20260904193029 66 61 2.0 6.0 0.00 0.08 0.05 56 1013.1
20260904191524 65 23 1.0 4.0 0.00 0.08 0.05 58 1013.4
20260904190029 65 74 1.0 4.0 0.00 0.08 0.05 62 1013.5
20260904184530 64 49 1.0 5.0 0.00 0.08 0.05 63 1013.4
20260904183034 64 103 2.0 6.0 0.00 0.18 0.05 64 1013.2
20260904181516 64 135 3.0 8.0 0.00 0.18 0.05 66 1013.4
20260904180023 63 76 3.0 9.0 0.00 0.18 0.05 70 1013.2
20260904174530 61 112 5.0 9.0 0.00 0.18 0.05 73 1013.1
20260904173015 60 97 4.0 13.0 0.00 0.18 0.05 76 1013.2
20260904171524 60 88 7.0 13.0 0.00 0.18 0.05 77 1013.1
20260904170020 0 83 7.0 11.0 0.00 0.18 0.05 78 1013.0
20260904164531 58 74 11.0 14.0 0.00 0.18 0.05 81 1013.2
20260904163031 58 67 6.0 10.0 0.00 0.18 0.05 81 1013.0
20260904161512 58 80 5.0 8.0 0.00 0.18 0.05 81 1012.9
20260904160036 56 84 4.0 7.0 0.00 0.18 0.05 85 1012.9
20260904154531 56 121 2.0 6.0 0.00 0.19 0.05 87 1013.1
20260904153028 55 142 3.0 8.0 0.00 0.19 0.05 87 1013.0
20260904151541 55 127 4.0 9.0 0.00 0.20 0.05 88 1012.7
20260904150035 54 84 3.0 8.0 0.00 0.20 0.05 89 1012.4
20260904144524 54 78 6.0 9.0 0.00 0.22 0.05 89 1012.4
20260904143027 54 130 2.0 5.0 0.01 0.23 0.05 90 1012.5
20260904141550 53 115 2.0 4.0 0.01 0.23 0.05 91 1012.2
20260904140013 53 81 2.0 5.0 0.01 0.24 0.05 91 1012.0
20260904134538 53 59 1.0 3.0 0.01 0.25 0.05 91 1012.0
20260904133031 53 173 0.0 2.0 0.00 0.24 0.04 90 1011.9
20260904131531 53 162 4.0 7.0 0.01 0.24 0.04 91 1011.9
20260904130033 53 123 1.0 4.0 0.02 0.24 0.04 92 1011.5
20260904124517 53 101 1.0 4.0 0.03 0.24 0.04 92 1011.4
20260904123026 53 89 2.0 4.0 0.04 0.24 0.04 91 1011.2
20260904121534 53 81 1.0 2.0 0.03 0.23 0.03 90 1011.2
20260904120037 53 123 2.0 3.0 0.02 0.22 0.02 90 1011.4
20260904114533 53 95 0.0 4.0 0.01 0.21 0.01 88 1011.4
20260904113032 53 96 2.0 3.0 0.00 0.20 0.00 88 1011.1
20260904111528 53 103 1.0 4.0 0.00 0.20 0.00 87 1010.9
20260904110028 53 129 2.0 3.0 0.00 0.20 0.00 88 1011.0
20260904104533 53 119 1.0 3.0 0.00 0.20 0.00 89 1010.9
20260904103038 53 130 2.0 4.0 0.00 0.20 0.00 89 1010.8
20260904101527 53 91 2.0 3.0 0.00 0.20 0.00 90 1010.6
20260904100030 54 94 2.0 4.0 0.00 0.20 0.00 89 1010.7
20260904094530 54 121 1.0 3.0 0.00 0.20 0.00 89 1010.7
20260904093036 54 117 2.0 4.0 0.00 0.20 0.00 90 1010.5
20260904091521 53 111 1.0 2.0 0.00 0.20 0.00 90 1010.4
20260904090004 54 93 1.0 2.0 0.00 0.20 0.00 89 1010.4
20260904084508 54 96 0.0 3.0 0.00 0.20 0.00 89 1010.5
20260904083016 54 121 0.0 3.0 0.00 0.21 0.00 89 1010.4
20260904081517 54 105 2.0 6.0 0.00 0.21 0.00 90 1010.3
20260904080041 55 87 1.0 3.0 0.00 0.21 0.00 91 1010.4
20260904074509 55 87 0.0 3.0 0.00 0.22 0.00 91 1010.4
20260904073009 55 74 2.0 4.0 0.00 0.22 0.00 91 1010.4
20260904071514 55 99 1.0 6.0 0.00 0.22 0.00 90 1010.3
20260904070021 55 98 2.0 5.0 0.00 0.22 0.00 91 1010.4
20260904064530 56 89 3.0 7.0 0.00 0.22 0.22 90 1010.3
20260904063016 56 81 3.0 6.0 0.00 0.23 0.22 90 1010.5
20260904061520 56 87 3.0 4.0 0.00 0.23 0.22 90 1010.4
20260904060017 56 103 2.0 4.0 0.00 0.23 0.22 90 1010.3
20260904054526 56 74 3.0 4.0 0.00 0.23 0.22 90 1010.4
20260904053033 56 90 0.0 3.0 0.00 0.23 0.22 89 1010.6
20260904051524 56 90 1.0 3.0 0.00 0.23 0.22 88 1010.6
20260904050018 56 119 0.0 0.0 0.00 0.23 0.22 89 1010.4
20260904044535 56 119 0.0 0.0 0.00 0.23 0.22 88 1010.5
20260904043028 56 119 0.0 0.0 0.00 0.23 0.22 89 1010.6
20260904041538 56 73 0.0 0.0 0.00 0.23 0.22 89 1010.5
20260904040016 56 73 0.0 2.0 0.00 0.23 0.22 88 1010.5
20260904034520 57 65 1.0 3.0 0.00 0.23 0.22 88 1010.4
20260904033027 56 97 0.0 1.0 0.00 0.23 0.22 88 1010.3
20260904031530 57 67 2.0 4.0 0.00 0.23 0.22 86 1010.0
20260904030011 57 105 3.0 6.0 0.00 0.23 0.22 86 1009.9
20260904024515 57 79 4.0 7.0 0.00 0.23 0.22 87 1009.5
20260904023024 58 116 3.0 7.0 0.00 0.23 0.22 87 1010.1
20260904021535 58 75 4.0 7.0 0.00 0.23 0.22 86 1009.9
20260904020041 58 120 2.0 5.0 0.00 0.23 0.22 87 1009.8
20260904014516 58 96 3.0 6.0 0.00 0.23 0.22 86 1010.0
20260904013020 57 73 5.0 7.0 0.00 0.23 0.22 86 1010.1
20260904011528 58 56 3.0 8.0 0.00 0.23 0.22 86 1010.1
20260904010008 58 92 5.0 8.0 0.00 0.23 0.22 1010.1